Vorticity
3 2 3 6 7 5 6 7 4 10 11 6 4 1 2 3 4 4 2 6 7 5 6 4 5 7 7 3 4 5 2 5 5 5 6 4 6 7 5 5 5 6 8 6 5 4 4 7 6 5 6 7 7 6 6 7 6 4 5 5 7 7 6 5 6 6 4 6 5 4 4 5 6 4 4 5 6 6 6 6 6 6 6 7 6 6 7 6 5 5 4 4 4 5 4 3 4
6 6 5 4 7 4 7 8 2 9 12 6 6 4 1 1 4 5 6 8 5 7 8 6 7 6 4 4 7 5 2 8 9 7 6 4 6 6 4 5 6 7 8 7 6 6 7 7 6 6 6 7 7 6 7 7 6 5 5 6 7 5 5 6 6 7 4 6 6 5 6 6 5 5 4 4 5 6 7 6 5 6 7 8 8 7 7 7 5 5 5 4 5 6 5 4 3
9 9 7 4 7 7 8 5 10 20 12 4 6 1 -1 6 8 6 9 7 5 6 6 6 7 8 7 6 6 7 7 8 7 7 5 3 5 5 4 5 5 6 7 7 7 7 10 7 5 7 8 9 8 8 7 7 8 8 7 7 5 4 5 5 5 6 5 6 5 5 6 6 5 4 4 4 5 6 7 6 5 5 7 8 8 7 7 7 7 6 5 5 6 6 5 4 3
7 8 6 5 5 10 8 1 17 25 9 4 4 4 11 16 5 3 12 8 5 5 5 6 6 8 8 7 8 10 9 6 7 8 5 3 5 5 4 6 5 6 6 6 6 6 7 4 5 7 8 9 8 8 8 8 9 8 7 6 4 5 6 5 5 6 6 6 5 5 5 6 7 5 5 6 5 5 5 5 4 4 6 7 6 7 7 8 9 7 5 6 6 6 5 5 3
6 6 6 4 2 10 10 1 12 12 7 8 2 10 13 4 -4 4 14 7 5 5 7 7 4 7 8 9 8 8 6 6 10 8 4 5 6 6 5 5 6 6 5 6 6 5 4 5 7 8 8 9 9 9 8 7 7 8 6 4 5 6 6 5 5 6 6 6 6 6 4 5 6 6 6 5 4 4 5 5 4 5 6 6 6 7 7 8 10 7 5 6 5 6 6 5 4
5 3 5 6 4 12 11 2 10 8 8 6 3 15 4 -4 2 7 9 7 8 5 6 8 5 7 7 9 7 6 5 6 9 6 6 6 5 6 5 4 5 6 6 6 6 6 6 7 8 8 9 9 9 9 8 8 7 7 5 5 5 6 6 5 5 6 6 6 6 6 5 5 5 5 5 5 4 4 4 5 5 5 6 6 6 8 8 8 9 7 6 6 5 6 5 5 4
6 5 5 7 7 14 11 3 14 12 8 4 6 12 -5 -0 9 3 6 8 8 6 6 7 6 7 6 6 7 8 6 8 8 6 7 5 5 7 6 5 6 6 5 6 5 7 8 8 8 7 8 7 7 9 9 8 7 7 6 6 5 6 6 5 5 5 6 7 6 5 4 5 5 5 5 4 6 5 4 5 5 5 5 7 7 7 9 8 7 7 7 5 5 5 5 5 4
6 8 5 7 6 14 12 7 20 14 9 6 1 2 -6 4 9 4 9 6 5 7 6 6 7 6 5 5 6 9 6 8 7 5 7 7 6 5 6 6 5 6 5 6 6 7 7 7 7 7 6 6 7 8 8 8 8 9 8 7 6 6 6 5 5 5 6 7 7 6 4 4 5 6 6 5 6 7 6 5 6 6 5 8 9 6 7 7 6 7 7 5 4 5 5 5 4
7 9 4 6 4 13 11 7 21 9 5 7 -1 1 3 8 7 5 8 5 6 6 5 6 6 4 6 7 8 8 6 7 7 6 6 6 6 5 7 6 5 5 5 5 6 7 7 8 8 8 7 6 8 7 8 8 9 10 9 7 7 6 6 6 6 5 5 6 6 5 5 5 5 5 6 8 7 6 7 8 7 7 8 9 9 7 6 6 6 6 6 5 4 5 6 5 5
8 10 5 5 4 14 9 8 18 6 7 9 -1 2 8 8 5 7 8 6 6 4 6 7 5 5 7 7 8 7 5 6 7 9 7 5 6 7 8 7 6 6 5 5 6 8 8 9 10 11 10 7 8 8 7 8 9 9 9 6 6 6 6 6 6 6 5 6 5 4 5 5 4 3 5 9 9 7 8 9 9 9 10 10 9 7 5 5 6 7 6 5 4 5 5 5 7
9 9 8 7 11 16 8 13 13 6 11 -1 -7 5 8 8 7 9 9 7 6 4 5 6 6 7 8 7 7 6 7 8 8 9 7 6 6 5 6 6 7 6 5 5 7 8 8 10 11 12 12 8 8 9 6 6 9 8 8 6 5 6 6 7 6 6 6 6 5 5 5 3 5 5 6 7 7 10 10 8 8 9 10 10 8 7 5 5 6 6 6 5 5 5 5 5 9
12 12 12 5 16 22 12 17 11 9 11 -7 -1 14 7 2 9 11 9 6 5 5 4 6 8 7 7 7 6 6 9 8 8 9 5 5 5 4 4 5 6 5 5 6 6 7 8 8 9 11 12 11 9 10 8 5 7 8 7 7 6 6 6 6 6 6 6 6 5 6 5 3 6 7 7 6 7 10 10 7 6 8 10 9 8 8 6 4 5 6 6 5 5 5 5 6 10
13 16 15 8 30 28 10 18 13 8 3 -5 4 12 5 -2 8 12 7 6 4 5 5 7 8 6 7 7 6 6 9 8 7 8 6 5 5 5 6 5 5 5 5 5 6 7 7 6 6 8 11 14 11 10 9 6 6 7 7 7 6 5 5 6 5 6 5 6 6 5 4 5 7 8 8 8 9 10 10 7 6 8 9 10 8 9 8 5 6 6 6 6 4 5 5 8 12
8 10 14 29 54 22 2 19 9 2 -3 -2 5 8 8 -1 6 11 6 8 6 6 5 5 6 5 7 6 6 7 8 7 7 8 6 6 5 5 6 6 5 6 6 5 7 6 5 6 6 7 10 13 12 11 10 7 5 6 7 6 6 5 5 5 5 5 5 7 7 5 5 6 8 10 11 10 11 11 12 9 7 10 9 10 9 10 10 6 8 7 6 6 4 5 6 9 12
8 10 14 36 52 14 3 13 -0 2 -1 1 9 7 5 -1 6 8 6 8 5 8 5 3 6 5 3 4 5 5 7 6 7 8 6 6 4 5 6 5 6 6 6 8 8 4 4 8 8 8 8 11 12 11 12 10 6 6 7 6 6 6 5 5 6 6 7 7 7 6 7 7 8 10 11 11 11 10 12 10 9 10 9 10 9 9 9 8 10 7 7 6 4 4 6 11 11
10 16 17 21 25 10 6 7 5 8 0 1 9 7 2 0 6 6 6 7 5 8 5 3 8 6 1 5 8 4 7 6 6 8 6 6 5 6 7 6 6 6 6 8 7 3 6 9 10 9 7 8 11 11 13 12 8 6 6 6 6 6 6 5 7 8 7 7 7 8 8 8 9 10 11 10 10 10 11 11 9 9 8 9 9 8 8 9 10 7 7 6 4 5 6 12 10
11 12 17 16 9 11 9 7 9 1 -1 5 7 7 3 1 6 8 6 5 6 6 4 4 7 6 3 7 7 4 7 5 5 7 6 7 6 5 6 6 6 5 5 6 6 6 7 8 8 7 7 9 10 11 12 12 9 7 6 6 6 7 7 7 8 8 8 7 8 7 7 8 9 10 11 11 11 11 12 12 9 8 8 9 9 7 8 10 9 6 7 5 3 5 7 11 8
11 8 13 17 7 10 8 5 3 -3 3 6 5 7 2 3 6 7 7 6 7 6 4 4 7 8 5 7 5 3 7 4 5 7 6 7 6 6 7 6 6 6 6 6 6 6 7 8 8 5 8 10 11 13 10 9 9 7 8 7 8 8 9 9 8 7 8 9 9 8 7 7 8 8 9 9 10 10 11 11 10 9 8 10 9 6 9 11 8 6 7 5 4 6 9 11 6
7 8 12 18 8 7 8 7 0 -1 6 2 6 7 0 6 7 5 8 9 7 6 4 4 9 9 5 7 5 3 5 4 5 5 6 6 5 6 7 7 7 8 8 7 5 5 6 7 8 8 9 8 10 13 10 9 10 10 10 9 9 10 10 10 8 7 8 9 9 9 9 9 11 11 10 9 10 9 9 11 13 11 9 10 8 5 9 10 6 7 7 4 4 7 10 9 4
8 10 11 13 6 4 7 9 -1 -2 6 4 6 6 3 6 5 5 9 11 7 4 6 6 9 10 7 6 4 3 4 5 4 3 5 5 5 6 6 7 7 9 9 7 6 7 8 8 10 12 12 10 10 11 11 11 9 11 13 11 9 9 9 9 8 9 10 9 8 10 11 12 13 12 12 11 10 8 8 11 14 13 11 10 7 6 9 9 7 7 6 4 4 8 11 8 3
11 11 13 12 6 9 8 5 2 2 5 5 6 5 5 5 5 7 9 12 6 3 8 6 6 9 8 4 5 4 2 5 4 3 5 5 5 5 5 6 7 8 9 9 8 7 7 9 12 11 11 12 10 10 11 11 9 11 12 9 7 7 7 10 12 12 13 12 11 12 10 9 10 11 14 13 11 9 9 10 13 14 12 9 6 7 10 9 8 7 5 4 4 9 11 7 2
12 9 18 17 8 13 10 5 6 4 2 6 8 4 3 6 8 6 8 9 3 5 8 5 6 9 7 3 5 4 2 5 5 3 4 5 5 4 5 6 6 7 8 9 9 8 9 10 10 8 7 9 11 11 11 10 9 8 6 6 8 8 10 15 14 9 11 12 11 9 7 10 11 11 14 13 11 10 11 10 10 12 10 8 6 8 12 10 9 7 4 3 5 10 11 6 2
12 11 22 17 10 14 10 7 6 1 4 13 7 1 4 7 9 6 8 10 4 6 6 5 7 7 5 3 4 4 3 7 6 5 5 4 5 4 5 5 6 7 7 9 8 8 9 9 10 9 8 10 11 10 10 8 6 6 7 8 9 11 11 10 7 7 11 12 11 8 9 13 11 11 11 10 11 9 11 10 8 10 9 7 7 9 12 10 8 5 3 4 6 10 10 5 2
7 14 22 13 14 19 12 3 3 5 9 17 8 -3 3 7 8 7 10 10 7 8 6 7 8 6 5 3 4 4 4 7 5 5 5 5 4 4 5 5 6 7 6 7 9 9 9 10 11 10 9 12 10 8 8 7 7 9 9 7 8 10 6 3 6 12 12 10 11 10 11 11 8 11 10 8 10 9 10 10 8 9 9 8 8 10 10 9 7 4 4 4 6 11 9 4 3
-3 11 26 23 21 16 14 6 5 12 7 12 7 -7 1 8 6 7 9 7 8 11 8 8 8 6 6 5 6 4 4 7 6 6 6 6 5 5 4 5 5 7 7 6 8 10 10 11 11 9 9 10 9 8 8 6 8 9 7 7 7 5 5 8 11 13 12 10 8 6 9 9 7 9 9 9 10 10 10 9 10 8 8 9 8 11 9 7 6 4 4 4 7 11 8 3 3
-9 0 17 31 28 10 13 13 7 5 0 9 2 -9 4 9 5 6 5 6 9 10 7 9 9 5 5 7 7 5 5 6 7 7 7 6 5 6 5 4 5 6 8 7 9 10 9 10 11 10 8 8 8 8 7 6 8 8 7 9 6 2 10 15 9 8 12 11 8 6 9 9 8 7 7 10 10 11 12 9 9 7 7 9 9 10 8 6 4 3 4 5 9 11 6 1 3
-3 -9 3 26 32 22 18 9 5 -1 -3 9 -0 -4 10 9 7 7 5 7 9 9 8 8 6 3 5 6 5 5 5 6 9 8 7 6 5 7 6 5 5 5 8 8 9 10 8 9 10 10 9 9 8 7 6 7 9 10 8 9 7 5 11 11 6 8 11 9 8 8 7 4 4 7 8 12 13 13 13 10 8 7 8 9 9 8 7 6 3 3 5 6 11 11 5 0 4
7 -11 -7 25 31 26 21 3 1 5 3 6 1 3 8 7 8 6 7 8 5 9 12 8 5 5 4 6 4 5 6 6 9 8 6 6 5 6 6 6 6 5 9 10 9 9 8 8 9 10 10 9 9 8 7 8 9 8 8 8 8 7 6 7 9 11 10 9 9 7 7 5 3 6 8 9 12 12 12 13 11 9 10 9 9 8 7 7 2 4 6 8 12 10 3 1 4
12 -3 -9 26 31 14 13 9 3 6 11 1 -3 5 4 7 9 6 10 7 3 10 13 7 4 6 5 5 4 4 6 7 8 7 5 6 6 6 6 6 6 6 9 10 10 9 9 10 9 10 9 8 8 9 9 8 7 7 9 10 9 8 8 12 13 11 9 9 9 6 8 8 4 7 9 4 9 14 12 15 13 11 11 9 10 10 9 7 4 6 7 8 12 8 3 2 4
7 6 -9 9 38 27 7 15 14 2 8 1 -5 7 5 8 9 5 9 6 4 10 13 9 4 6 6 3 4 4 5 8 9 6 5 7 6 6 6 5 6 9 10 10 10 9 9 10 8 9 8 8 8 7 9 7 6 8 11 11 9 10 11 13 13 12 11 10 8 6 8 10 6 8 11 4 8 13 8 11 13 9 8 9 11 11 9 7 6 7 6 6 11 10 5 3 3
7 8 -6 -12 29 47 12 10 23 4 2 2 -2 6 3 5 11 7 7 7 5 8 12 10 5 6 6 3 4 4 6 9 9 5 5 6 5 6 5 5 7 9 9 10 11 9 9 9 8 8 7 8 8 7 8 7 6 8 9 10 10 10 12 12 13 13 13 11 8 7 8 10 9 8 11 8 6 7 5 8 12 7 7 11 11 9 6 6 7 7 6 7 11 11 7 3 3
15 10 8 -6 -0 34 31 18 19 6 4 3 -3 5 3 3 12 9 5 5 4 8 13 9 6 7 4 4 4 3 6 9 8 5 6 6 6 7 5 4 7 8 9 10 11 9 8 8 7 8 8 7 8 6 7 7 6 7 9 10 9 9 10 11 12 12 12 12 11 10 9 9 9 8 10 11 7 7 8 9 9 7 8 12 10 6 6 7 8 8 6 7 11 11 6 3 5
13 7 15 8 -14 7 38 36 18 5 6 3 -2 3 2 0 10 10 4 6 5 7 13 8 6 7 3 3 4 3 6 8 8 6 6 6 6 7 6 5 6 7 10 11 11 10 8 8 8 9 9 7 7 6 6 7 7 7 8 8 9 9 9 11 12 11 12 12 12 11 11 8 6 7 9 12 12 8 7 8 8 8 9 10 6 5 8 8 7 8 6 7 10 10 6 3 4
3 4 8 7 -4 -5 19 40 28 6 4 5 3 3 3 2 7 9 5 6 6 7 11 9 5 6 4 3 4 4 5 5 7 6 6 7 6 7 6 5 5 5 9 12 10 8 8 9 9 9 8 7 6 5 6 7 7 8 7 8 10 10 8 9 10 11 12 13 13 11 11 8 6 12 12 10 12 9 4 6 7 8 10 8 5 7 8 8 8 7 6 8 10 9 7 3 3
1 9 10 3 3 -6 2 31 29 11 7 8 5 3 4 4 3 6 8 6 6 7 8 9 6 5 5 5 4 4 5 5 4 5 6 7 7 7 7 5 4 4 6 10 10 7 8 8 9 9 8 8 6 5 6 7 7 7 7 7 8 10 11 9 8 10 12 14 15 13 13 9 7 15 12 6 10 11 8 10 11 10 10 6 6 8 7 8 8 6 6 9 12 11 9 4 2
-1 9 13 6 6 2 -0 13 18 16 14 8 7 7 3 3 3 5 9 6 5 6 6 7 7 5 5 6 6 4 5 4 3 6 6 6 8 7 8 6 3 5 6 8 11 9 7 7 9 10 8 8 7 5 6 7 7 6 5 6 6 8 11 10 8 9 9 11 14 15 15 9 7 12 10 6 10 11 10 11 11 10 8 6 6 7 6 7 7 6 7 8 11 12 10 6 3
1 7 11 7 7 9 3 4 12 18 22 14 5 7 6 5 6 4 8 7 4 5 4 6 7 5 6 6 6 5 4 4 4 7 8 6 6 6 8 7 2 3 5 7 11 10 7 6 8 10 9 8 7 6 5 6 7 7 6 5 6 6 9 10 9 9 8 10 10 12 14 11 10 12 9 9 9 9 9 7 8 7 6 6 5 4 5 6 7 8 7 6 9 11 11 7 4
3 4 8 7 6 8 1 3 9 11 23 24 7 5 8 8 4 -1 5 7 4 8 4 4 7 5 6 6 6 5 4 4 3 5 9 8 6 5 8 8 3 2 4 6 9 11 9 6 7 9 9 8 8 7 6 7 6 6 7 6 6 6 7 9 9 9 8 9 9 8 11 11 12 12 11 12 10 9 9 9 10 9 7 7 5 5 6 6 7 7 6 6 7 10 11 8 5
4 -1 6 11 10 9 3 -1 4 7 17 23 18 13 6 7 6 -1 3 5 4 8 5 2 5 6 6 5 6 6 4 3 3 3 6 11 8 4 7 8 5 2 4 6 7 10 10 7 7 7 9 8 8 8 6 6 6 5 7 7 7 6 6 9 9 10 9 8 9 7 8 10 10 11 11 11 10 10 10 10 13 12 9 8 7 7 6 6 7 6 6 7 8 10 10 7 6
6 1 5 10 6 6 6 2 4 10 13 14 17 17 8 7 12 6 3 5 6 7 5 4 4 5 7 7 6 6 6 3 2 4 4 8 10 5 5 7 7 4 3 5 6 9 11 9 8 6 7 7 6 7 6 5 5 4 5 6 7 7 7 9 9 10 10 9 9 7 7 8 8 8 9 9 9 10 11 10 10 10 9 8 8 7 7 6 5 5 7 8 7 10 10 8 7
7 10 7 5 4 5 4 5 6 3 5 10 14 26 25 13 15 19 5 -2 5 6 5 5 4 5 5 7 8 5 6 5 2 5 3 4 10 8 4 4 7 7 4 5 5 6 9 10 9 6 5 6 5 5 5 4 5 4 5 5 6 8 7 7 8 10 11 10 10 8 7 7 8 8 8 9 9 11 11 10 9 9 9 9 8 7 7 6 5 4 8 9 7 9 10 8 8
-3 7 9 4 7 9 2 4 10 2 4 11 11 21 26 14 14 22 12 1 6 8 5 4 3 7 7 6 9 4 4 8 5 5 5 4 7 9 7 4 7 8 4 4 4 4 7 9 10 8 5 6 6 6 5 4 5 4 4 5 6 7 7 7 8 9 10 10 10 10 9 8 8 8 7 8 10 11 11 10 9 9 9 9 8 7 6 7 7 7 8 8 8 10 9 6 9
-6 -6 3 8 7 6 1 2 6 3 6 15 13 11 11 11 17 22 18 8 7 6 0 5 6 4 9 7 6 6 6 10 8 6 7 6 6 8 8 6 6 7 6 4 4 3 5 6 8 10 8 6 6 6 7 5 5 6 5 5 6 6 8 9 8 6 8 10 10 11 10 9 9 7 8 10 11 10 10 10 10 9 9 9 8 7 7 7 8 10 10 9 9 10 9 6 8
6 -2 -6 7 11 8 7 5 6 4 1 4 13 18 9 6 19 36 34 8 3 11 -4 0 11 3 7 10 5 8 7 9 10 7 7 6 5 7 8 7 6 7 8 5 3 3 5 6 6 9 9 9 8 7 7 7 5 6 5 5 5 6 8 9 7 6 7 9 10 12 11 9 9 8 8 11 11 9 8 9 10 10 9 9 9 8 8 7 6 8 10 9 9 8 8 8 6
13 10 -4 1 10 15 19 12 7 7 2 -1 12 25 15 -1 5 35 52 20 -1 11 2 -1 11 6 6 6 3 7 7 8 10 7 7 6 6 7 8 9 6 5 9 7 5 3 3 5 5 7 8 9 10 8 7 7 6 6 6 5 4 6 6 6 7 6 7 7 9 10 10 10 10 10 9 9 10 10 9 9 9 9 9 9 9 8 7 7 7 9 9 9 9 7 7 9 6
11 17 8 4 4 3 16 20 12 9 6 1 7 18 17 6 -3 8 47 51 11 -1 7 6 6 7 9 6 2 6 6 7 9 7 7 6 6 8 7 10 8 4 7 8 7 4 2 4 5 6 7 8 9 9 8 7 7 6 6 5 4 5 6 5 5 6 5 6 8 8 7 9 11 11 10 8 9 10 8 9 9 8 9 8 9 8 7 7 9 10 9 9 10 9 6 6 7
-2 10 10 12 14 -3 -4 8 9 13 13 1 -1 8 11 9 7 -2 20 55 38 6 5 6 2 4 9 9 5 5 6 7 6 7 8 6 7 8 6 8 10 6 6 8 8 5 2 3 4 5 6 7 7 8 9 8 8 7 6 6 5 5 5 5 5 6 5 5 6 8 7 8 10 10 10 9 8 9 8 8 8 7 8 8 8 9 8 8 9 9 9 8 8 8 6 5 5
-12 -1 7 2 9 8 8 2 -11 -1 12 6 1 10 11 4 11 10 5 26 41 30 13 1 3 8 7 9 8 6 7 6 5 7 7 6 5 7 7 7 10 10 6 5 8 7 4 3 4 5 5 6 7 7 8 8 8 8 7 7 6 5 5 6 6 5 6 6 5 6 7 8 9 9 9 9 8 9 8 8 9 8 9 10 10 9 8 7 7 7 8 7 6 5 5 5 4
-15 -8 10 0 -3 4 17 11 -9 -10 -0 3 4 7 12 7 4 11 9 6 17 32 28 6 0 8 8 7 7 8 9 7 6 5 5 5 4 5 8 7 8 11 8 5 6 7 6 4 3 4 4 5 5 6 7 7 8 10 10 8 7 7 6 5 6 6 5 6 5 5 6 7 8 8 8 9 9 9 9 8 9 9 9 10 10 9 9 8 7 7 6 6 5 3 4 5 4
4 -1 4 7 10 6 11 15 8 4 0 1 6 3 5 9 1 1 12 13 5 14 28 22 9 6 6 7 6 7 9 7 6 5 4 5 6 7 10 9 7 9 10 7 6 6 7 6 5 4 4 4 4 4 6 7 8 8 8 10 10 8 7 6 5 6 5 5 5 5 5 6 7 8 8 8 8 9 9 9 9 9 9 9 9 8 8 7 6 5 4 4 4 4 4 4 4
10 9 -2 1 10 3 5 18 18 13 8 3 5 10 12 13 11 3 4 13 10 6 10 20 27 17 3 4 8 6 7 7 5 7 8 6 6 6 7 9 8 7 9 8 6 5 6 7 7 7 4 3 3 3 4 7 9 7 6 8 11 10 9 8 6 6 5 5 6 5 5 5 5 6 7 8 8 8 9 9 9 9 9 8 7 6 5 5 4 4 4 3 3 3 3 3 4
-3 8 6 8 13 2 -4 11 19 10 10 11 9 11 7 3 11 10 2 6 13 15 5 6 36 42 14 3 9 7 6 8 7 6 7 6 6 5 4 7 9 7 8 8 7 6 5 6 6 8 7 5 5 3 3 5 7 9 7 6 9 10 9 10 8 7 6 5 6 6 5 5 5 5 6 6 7 7 7 7 7 8 7 7 6 5 4 3 3 3 3 3 2 2 2 3 4
-2 4 8 13 19 12 -6 -4 11 4 -2 7 10 12 7 1 5 4 3 5 7 16 11 1 26 44 23 7 9 8 6 8 9 7 6 5 5 4 3 6 8 9 8 6 7 7 6 6 6 7 8 7 7 5 4 4 4 7 7 5 7 8 9 10 9 8 7 6 6 5 5 5 5 5 5 5 5 5 6 6 6 6 6 6 6 5 4 3 2 2 2 3 2 2 3 4 5
3 5 11 17 11 9 3 -6 2 6 5 7 1 4 12 11 11 6 2 5 3 9 12 6 13 22 15 11 11 10 8 8 8 8 7 7 7 6 4 5 7 8 8 7 7 8 7 6 6 6 6 6 8 8 6 5 5 4 5 6 7 7 8 9 9 9 9 8 7 5 5 5 5 5 5 5 5 4 5 5 5 5 4 4 4 4 4 3 3 3 3 3 3 4 5 5 6
4 3 3 12 5 7 18 10 2 2 10 20 5 -3 5 7 12 17 11 8 9 11 10 8 11 10 8 14 15 11 8 5 6 7 7 7 8 9 6 5 7 6 7 7 8 9 7 6 7 6 6 6 6 7 8 7 6 5 4 5 6 7 7 7 8 9 10 10 8 6 6 5 5 5 5 5 5 5 5 4 4 4 4 4 4 3 3 3 3 3 3 3 4 4 4 5 6
8 7 2 7 5 6 15 12 10 3 1 20 17 0 5 9 11 19 17 10 9 10 6 6 12 10 4 6 12 17 15 8 4 4 6 5 4 7 8 6 8 7 6 6 6 8 7 6 7 6 6 7 5 5 6 6 6 6 5 5 5 4 5 6 7 8 9 10 8 7 7 6 6 6 6 6 5 5 5 5 5 5 5 5 4 5 4 4 4 3 4 4 4 4 4 6 7
10 5 4 6 -1 -2 7 8 13 13 5 18 23 8 8 10 6 13 17 10 7 10 9 7 9 11 6 -1 -2 6 17 20 14 6 5 5 2 5 8 8 9 9 7 6 6 7 8 7 7 7 6 7 7 6 4 3 4 5 5 6 6 5 5 5 5 7 7 8 9 9 8 7 8 7 6 7 6 6 5 5 6 5 6 6 5 5 5 4 5 4 5 5 4 5 6 7 8
20 9 2 4 1 -3 9 9 3 8 6 5 10 13 18 14 3 7 12 10 11 14 13 10 10 12 11 7 -1 -5 2 15 21 15 8 5 3 4 6 6 7 10 9 8 6 5 7 7 7 7 7 7 8 8 7 5 3 3 3 4 5 6 7 6 6 6 6 6 7 9 9 9 8 8 8 8 7 7 6 5 6 5 5 6 5 5 5 5 5 5 5 6 6 7 7 8 10
Height
5895 5896 5896 5895 5895 5895 5895 5895 5895 5896 5896 5897 5897 5898 5899 5898 5899 5899 5899 5899 5899 5899 5898 5897 5898 5899 5899 5899 5900 5900 5900 5901 5901 5902 5902 5903 5904 5903 5903 5903 5904 5903 5903 5904 5904 5905 5906 5906 5907 5907 5907 5908 5908 5909 5909 5910 5910 5910 5910 5911 5912 5913 5915 5915 5916 5916 5916 5917 5917 5918 5918 5919 5919 5920 5920 5920 5921 5921 5922 5922 5922 5922 5922 5923 5924 5924 5924 5924 5924 5924 5925 5924 5924 5925 5926 5927 5927
5895 5896 5895 5895 5896 5895 5895 5895 5895 5896 5896 5896 5897 5898 5899 5899 5899 5900 5899 5899 5899 5899 5898 5898 5899 5900 5899 5900 5900 5900 5901 5902 5901 5902 5903 5904 5905 5904 5903 5904 5904 5904 5904 5905 5905 5906 5906 5907 5907 5907 5908 5908 5909 5909 5910 5910 5911 5911 5911 5912 5913 5914 5915 5916 5916 5916 5916 5917 5917 5918 5919 5920 5920 5921 5921 5921 5921 5922 5923 5923 5923 5923 5923 5924 5925 5925 5925 5924 5924 5925 5925 5926 5926 5926 5927 5928 5928
5895 5895 5895 5895 5896 5895 5895 5895 5895 5896 5896 5896 5897 5899 5900 5900 5899 5899 5899 5899 5900 5900 5899 5898 5899 5900 5900 5900 5900 5901 5902 5902 5902 5902 5903 5904 5905 5904 5904 5904 5904 5904 5905 5905 5906 5906 5907 5907 5908 5908 5909 5909 5909 5910 5911 5912 5912 5912 5912 5913 5913 5914 5915 5916 5916 5916 5916 5917 5918 5919 5920 5921 5921 5921 5921 5921 5922 5922 5923 5923 5923 5924 5924 5925 5925 5926 5926 5926 5925 5926 5926 5927 5927 5927 5928 5929 5930
5895 5895 5895 5895 5896 5896 5895 5895 5895 5896 5897 5897 5898 5900 5900 5901 5900 5899 5900 5900 5900 5900 5899 5899 5900 5900 5900 5900 5901 5901 5902 5903 5904 5903 5904 5905 5905 5905 5904 5904 5904 5904 5905 5905 5906 5907 5907 5908 5908 5909 5909 5909 5910 5910 5911 5912 5913 5914 5914 5914 5914 5914 5915 5916 5916 5916 5917 5918 5918 5919 5920 5921 5922 5922 5922 5922 5922 5923 5923 5923 5923 5924 5924 5925 5926 5926 5927 5927 5927 5927 5927 5927 5928 5928 5929 5930 5930
5895 5895 5895 5895 5896 5896 5896 5896 5896 5896 5898 5898 5899 5900 5900 5902 5902 5900 5901 5901 5900 5900 5900 5900 5900 5900 5900 5900 5901 5902 5902 5904 5905 5904 5904 5906 5906 5905 5905 5905 5905 5905 5905 5906 5906 5907 5907 5908 5908 5909 5909 5909 5909 5909 5911 5912 5913 5914 5915 5915 5915 5915 5915 5916 5917 5917 5917 5917 5918 5919 5920 5921 5922 5922 5922 5922 5923 5923 5923 5923 5924 5924 5924 5925 5926 5927 5928 5928 5928 5927 5927 5928 5928 5929 5930 5931 5931
5895 5895 5896 5896 5896 5896 5896 5896 5896 5896 5898 5899 5899 5900 5900 5902 5902 5901 5901 5901 5901 5901 5901 5901 5900 5900 5901 5901 5902 5902 5902 5904 5905 5905 5904 5906 5906 5905 5905 5905 5905 5905 5906 5906 5907 5907 5907 5908 5908 5908 5909 5909 5909 5909 5910 5912 5913 5914 5915 5915 5915 5915 5915 5915 5916 5916 5916 5917 5918 5919 5919 5920 5922 5922 5923 5923 5923 5923 5923 5924 5924 5924 5925 5925 5926 5927 5928 5929 5929 5928 5928 5928 5929 5930 5931 5932 5932
5895 5895 5895 5896 5895 5895 5896 5896 5895 5896 5898 5899 5899 5900 5901 5902 5901 5901 5902 5902 5902 5902 5902 5902 5901 5901 5901 5902 5902 5902 5903 5903 5905 5906 5905 5906 5906 5906 5905 5905 5905 5905 5906 5906 5907 5907 5907 5907 5908 5908 5908 5909 5909 5910 5911 5912 5913 5914 5915 5916 5916 5916 5915 5915 5916 5916 5916 5917 5918 5919 5920 5920 5921 5922 5922 5923 5924 5924 5924 5924 5924 5924 5925 5926 5927 5928 5928 5929 5929 5929 5929 5929 5930 5931 5931 5932 5933
5895 5895 5895 5895 5895 5895 5896 5896 5895 5896 5898 5899 5898 5900 5902 5901 5901 5902 5902 5903 5902 5902 5902 5902 5902 5902 5902 5902 5903 5904 5904 5904 5905 5906 5907 5906 5907 5906 5906 5906 5905 5905 5906 5906 5907 5907 5907 5907 5908 5908 5909 5910 5911 5911 5912 5912 5913 5914 5915 5916 5916 5916 5916 5915 5915 5916 5916 5917 5918 5919 5920 5920 5921 5922 5922 5923 5924 5924 5924 5924 5925 5925 5925 5926 5927 5927 5928 5929 5929 5929 5930 5930 5931 5931 5932 5932 5933
5895 5895 5894 5894 5894 5894 5895 5896 5896 5897 5898 5900 5899 5900 5902 5901 5901 5902 5903 5903 5903 5903 5903 5903 5903 5902 5902 5903 5903 5905 5905 5905 5906 5907 5908 5907 5907 5907 5907 5907 5906 5906 5906 5907 5907 5907 5908 5908 5909 5910 5911 5911 5912 5912 5912 5912 5913 5914 5915 5916 5916 5916 5916 5916 5916 5916 5916 5916 5917 5918 5919 5920 5921 5922 5922 5923 5923 5923 5924 5924 5925 5925 5926 5926 5927 5927 5928 5929 5929 5930 5931 5931 5932 5932 5933 5933 5934
5894 5894 5894 5893 5893 5894 5894 5895 5896 5897 5898 5901 5901 5900 5901 5901 5902 5903 5903 5903 5903 5903 5904 5903 5903 5903 5903 5903 5904 5905 5905 5905 5906 5907 5908 5908 5908 5908 5908 5908 5908 5907 5907 5908 5908 5908 5909 5909 5910 5911 5911 5912 5912 5912 5912 5912 5912 5913 5914 5915 5916 5916 5917 5916 5916 5916 5916 5916 5917 5918 5919 5920 5921 5921 5922 5922 5923 5923 5924 5924 5925 5926 5926 5927 5927 5927 5928 5929 5930 5931 5931 5932 5932 5933 5933 5934 5934
5893 5892 5892 5892 5892 5893 5893 5895 5896 5897 5898 5899 5901 5901 5901 5901 5902 5903 5903 5903 5903 5904 5904 5904 5904 5904 5904 5904 5904 5905 5905 5906 5906 5908 5908 5908 5909 5909 5909 5909 5909 5909 5909 5909 5909 5910 5910 5910 5911 5911 5911 5911 5912 5912 5912 5912 5912 5913 5914 5915 5915 5916 5917 5917 5917 5917 5917 5917 5917 5917 5918 5919 5920 5921 5922 5922 5923 5923 5924 5924 5925 5925 5926 5927 5927 5928 5928 5929 5931 5932 5933 5933 5933 5933 5934 5934 5935
5892 5891 5891 5891 5891 5892 5892 5894 5895 5896 5897 5898 5901 5901 5901 5901 5902 5903 5903 5904 5904 5904 5904 5904 5904 5904 5904 5905 5905 5906 5906 5906 5907 5907 5908 5908 5909 5909 5910 5910 5910 5910 5910 5910 5910 5911 5911 5911 5911 5911 5911 5911 5911 5911 5912 5912 5912 5913 5914 5914 5915 5916 5917 5918 5918 5918 5918 5917 5917 5917 5918 5918 5919 5920 5921 5922 5923 5923 5924 5924 5925 5925 5926 5927 5928 5928 5929 5930 5932 5933 5934 5934 5934 5934 5934 5935 5936
5892 5891 5891 5890 5890 5890 5892 5894 5895 5896 5898 5899 5900 5901 5901 5902 5902 5903 5903 5904 5904 5905 5905 5905 5905 5905 5905 5906 5907 5906 5907 5907 5907 5908 5908 5909 5909 5909 5910 5910 5910 5910 5910 5911 5911 5911 5911 5911 5911 5911 5911 5911 5911 5911 5912 5912 5913 5913 5914 5915 5916 5916 5917 5918 5918 5918 5918 5918 5919 5919 5919 5919 5919 5920 5921 5921 5922 5923 5924 5924 5925 5925 5926 5927 5928 5929 5930 5931 5932 5934 5935 5935 5935 5935 5935 5936 5937
5892 5891 5890 5888 5887 5889 5891 5893 5895 5897 5899 5899 5899 5900 5902 5902 5902 5903 5904 5905 5905 5905 5905 5905 5905 5905 5905 5907 5908 5907 5907 5908 5909 5909 5909 5909 5909 5910 5910 5910 5910 5910 5910 5910 5911 5911 5911 5911 5911 5911 5911 5911 5911 5912 5912 5912 5913 5914 5914 5915 5916 5917 5917 5917 5918 5918 5919 5919 5919 5919 5919 5919 5919 5919 5920 5921 5922 5922 5923 5924 5925 5925 5926 5927 5928 5930 5931 5932 5934 5935 5936 5936 5936 5936 5937 5938 5938
5892 5891 5890 5888 5887 5890 5892 5894 5895 5897 5899 5900 5900 5900 5902 5903 5903 5904 5904 5905 5905 5905 5905 5906 5905 5905 5906 5907 5908 5909 5908 5909 5909 5910 5910 5910 5910 5910 5910 5910 5910 5910 5910 5910 5910 5910 5910 5910 5910 5911 5911 5911 5912 5913 5913 5913 5913 5914 5914 5915 5916 5916 5917 5917 5918 5918 5919 5919 5920 5920 5920 5920 5919 5919 5920 5921 5921 5922 5923 5924 5925 5925 5926 5927 5928 5930 5932 5933 5935 5936 5937 5937 5938 5938 5938 5939 5940
5892 5891 5891 5890 5890 5891 5893 5895 5896 5898 5899 5900 5901 5901 5902 5904 5904 5904 5905 5905 5906 5906 5906 5906 5906 5906 5907 5907 5908 5909 5909 5909 5910 5910 5910 5911 5911 5911 5911 5911 5910 5910 5910 5910 5911 5911 5911 5911 5911 5911 5911 5912 5913 5914 5914 5914 5914 5914 5915 5915 5916 5916 5916 5917 5918 5918 5919 5919 5920 5920 5920 5920 5920 5920 5920 5920 5921 5922 5923 5924 5925 5926 5926 5927 5928 5930 5932 5934 5936 5937 5938 5938 5939 5939 5939 5940 5941
5892 5891 5891 5892 5892 5893 5894 5895 5896 5897 5899 5899 5901 5901 5902 5903 5904 5904 5905 5905 5906 5906 5907 5907 5907 5907 5908 5909 5909 5909 5910 5910 5910 5911 5911 5911 5911 5912 5912 5911 5911 5910 5910 5910 5911 5911 5911 5912 5912 5911 5912 5912 5914 5914 5915 5914 5914 5914 5915 5915 5915 5916 5917 5918 5918 5918 5919 5919 5920 5920 5920 5920 5920 5920 5920 5920 5921 5922 5923 5924 5925 5926 5927 5928 5929 5931 5933 5935 5937 5938 5939 5939 5940 5940 5940 5942 5943
5892 5892 5892 5892 5892 5893 5894 5895 5895 5896 5898 5899 5900 5901 5901 5903 5904 5904 5905 5906 5906 5907 5908 5908 5908 5908 5909 5910 5910 5909 5911 5911 5911 5912 5912 5912 5913 5913 5913 5912 5912 5911 5911 5911 5911 5912 5912 5912 5913 5912 5912 5913 5914 5915 5915 5915 5915 5915 5915 5915 5916 5917 5918 5919 5919 5918 5919 5919 5920 5920 5920 5920 5920 5920 5920 5921 5921 5922 5923 5924 5925 5926 5927 5928 5930 5932 5934 5936 5937 5939 5939 5940 5941 5941 5942 5943 5944
5892 5892 5892 5892 5892 5893 5893 5894 5894 5896 5896 5898 5900 5901 5901 5902 5903 5904 5906 5906 5907 5908 5909 5909 5909 5909 5910 5911 5911 5911 5911 5912 5912 5912 5913 5913 5913 5914 5914 5913 5913 5912 5912 5911 5912 5912 5913 5913 5914 5914 5913 5914 5915 5915 5915 5915 5915 5916 5916 5916 5917 5917 5918 5919 5919 5919 5919 5920 5920 5920 5920 5921 5921 5921 5921 5921 5922 5923 5924 5924 5925 5926 5927 5929 5931 5933 5935 5937 5938 5939 5940 5941 5942 5942 5943 5944 5945
5892 5892 5891 5891 5891 5891 5892 5892 5893 5894 5895 5897 5899 5901 5901 5902 5903 5904 5906 5907 5907 5908 5909 5909 5910 5910 5911 5912 5913 5912 5912 5913 5913 5913 5913 5914 5914 5914 5914 5914 5914 5913 5913 5912 5912 5913 5914 5915 5915 5915 5914 5915 5915 5915 5915 5916 5916 5917 5917 5917 5918 5918 5919 5919 5920 5920 5920 5921 5921 5921 5921 5922 5922 5921 5921 5922 5922 5923 5924 5925 5926 5927 5928 5930 5932 5933 5935 5937 5939 5940 5941 5942 5943 5943 5944 5945 5946
5891 5891 5890 5890 5889 5889 5891 5891 5892 5893 5894 5896 5899 5900 5901 5902 5903 5905 5906 5907 5908 5908 5909 5910 5910 5910 5911 5912 5914 5913 5913 5914 5914 5914 5914 5914 5915 5915 5915 5914 5914 5914 5914 5913 5913 5914 5915 5916 5916 5915 5915 5915 5916 5916 5916 5916 5917 5918 5918 5918 5919 5919 5920 5920 5920 5921 5921 5922 5922 5922 5923 5923 5922 5922 5922 5922 5923 5924 5924 5925 5926 5928 5929 5931 5932 5934 5936 5938 5939 5941 5942 5943 5944 5945 5946 5947 5948
5890 5890 5889 5889 5889 5889 5892 5894 5896 5895 5894 5895 5897 5899 5901 5902 5903 5905 5906 5907 5908 5909 5910 5911 5911 5911 5911 5912 5914 5914 5915 5915 5915 5915 5915 5915 5915 5915 5915 5915 5915 5914 5914 5914 5914 5914 5916 5917 5917 5916 5915 5916 5917 5917 5917 5918 5918 5919 5919 5920 5920 5920 5920 5921 5921 5922 5922 5922 5923 5923 5924 5923 5923 5923 5923 5923 5924 5925 5926 5926 5927 5929 5930 5932 5933 5935 5937 5938 5940 5941 5943 5944 5945 5946 5947 5948 5949
5889 5889 5889 5889 5890 5892 5894 5896 5898 5899 5898 5899 5899 5899 5900 5902 5903 5905 5907 5908 5908 5909 5910 5911 5912 5912 5912 5913 5914 5914 5915 5916 5916 5916 5916 5916 5916 5916 5916 5916 5916 5915 5915 5915 5915 5915 5916 5917 5917 5916 5916 5917 5918 5917 5918 5919 5919 5920 5921 5921 5921 5922 5921 5922 5922 5922 5923 5923 5924 5924 5924 5924 5924 5925 5925 5924 5925 5926 5927 5927 5928 5930 5932 5933 5934 5936 5937 5939 5941 5942 5943 5945 5946 5947 5948 5949 5951
5888 5889 5889 5889 5890 5893 5894 5895 5896 5899 5901 5901 5902 5902 5901 5902 5903 5905 5907 5908 5908 5910 5910 5911 5912 5913 5913 5914 5914 5915 5916 5917 5917 5918 5918 5917 5917 5916 5916 5917 5916 5916 5915 5916 5916 5916 5917 5918 5917 5917 5917 5918 5919 5918 5919 5919 5921 5921 5922 5922 5923 5923 5922 5922 5923 5922 5923 5924 5924 5925 5925 5926 5926 5926 5926 5925 5926 5927 5928 5928 5929 5931 5933 5934 5935 5937 5938 5940 5942 5943 5944 5945 5946 5947 5949 5951 5952
5888 5888 5888 5888 5889 5891 5893 5893 5894 5896 5899 5900 5900 5902 5902 5902 5903 5905 5907 5907 5908 5909 5910 5912 5912 5913 5914 5914 5915 5916 5916 5917 5917 5918 5918 5919 5918 5917 5917 5917 5917 5916 5916 5916 5916 5917 5918 5919 5919 5918 5918 5919 5920 5920 5920 5920 5922 5923 5923 5923 5924 5924 5923 5923 5924 5923 5924 5925 5925 5926 5926 5927 5927 5927 5927 5927 5928 5928 5929 5929 5930 5932 5933 5935 5936 5938 5939 5941 5943 5944 5945 5946 5947 5948 5950 5952 5953
5888 5888 5888 5887 5888 5890 5891 5892 5893 5896 5898 5900 5901 5901 5902 5903 5903 5904 5906 5907 5908 5909 5910 5912 5913 5913 5914 5915 5915 5916 5917 5918 5918 5918 5919 5919 5919 5919 5918 5918 5917 5917 5917 5916 5917 5917 5918 5919 5920 5920 5919 5920 5921 5921 5921 5922 5923 5924 5924 5925 5925 5925 5924 5924 5924 5924 5925 5925 5926 5927 5927 5928 5929 5929 5928 5928 5929 5929 5929 5930 5931 5933 5934 5936 5937 5939 5941 5942 5944 5945 5946 5947 5948 5950 5951 5953 5954
5888 5888 5888 5887 5888 5889 5890 5891 5893 5896 5898 5900 5901 5901 5902 5903 5903 5904 5906 5907 5908 5909 5911 5912 5913 5914 5914 5915 5916 5917 5918 5918 5918 5919 5919 5919 5920 5920 5920 5919 5918 5918 5918 5917 5918 5918 5919 5920 5921 5921 5921 5921 5921 5922 5922 5923 5924 5925 5925 5925 5926 5925 5925 5925 5925 5925 5925 5926 5927 5928 5928 5929 5930 5930 5930 5930 5931 5931 5931 5931 5933 5934 5936 5937 5939 5941 5942 5943 5945 5946 5948 5949 5950 5951 5952 5953 5955
5888 5888 5888 5887 5888 5889 5890 5891 5892 5895 5897 5898 5900 5900 5901 5903 5903 5904 5905 5907 5908 5909 5911 5912 5913 5914 5915 5915 5916 5917 5918 5919 5919 5919 5919 5919 5919 5920 5920 5921 5920 5919 5919 5918 5918 5919 5920 5920 5922 5922 5922 5922 5923 5923 5923 5923 5924 5925 5925 5926 5927 5926 5926 5925 5925 5926 5926 5927 5928 5929 5930 5930 5931 5932 5932 5932 5932 5933 5933 5933 5935 5936 5937 5939 5940 5942 5943 5945 5946 5948 5950 5951 5952 5953 5953 5955 5956
5888 5888 5888 5887 5887 5888 5890 5891 5892 5894 5895 5897 5898 5899 5901 5903 5904 5904 5905 5906 5908 5909 5910 5912 5913 5914 5915 5916 5917 5917 5918 5919 5919 5920 5920 5919 5919 5920 5921 5921 5921 5920 5920 5919 5919 5920 5920 5921 5922 5923 5924 5924 5924 5925 5925 5924 5925 5925 5926 5926 5927 5927 5927 5926 5926 5926 5926 5928 5929 5930 5931 5931 5932 5933 5934 5934 5934 5935 5935 5936 5937 5938 5939 5940 5942 5944 5945 5947 5948 5950 5951 5952 5953 5954 5955 5957 5957
5886 5887 5888 5888 5887 5887 5888 5890 5892 5893 5894 5895 5897 5899 5901 5902 5904 5905 5905 5906 5907 5909 5910 5912 5913 5914 5915 5916 5917 5918 5918 5919 5919 5920 5920 5920 5920 5920 5920 5921 5922 5922 5921 5920 5920 5920 5921 5921 5922 5924 5925 5925 5925 5926 5926 5925 5925 5925 5926 5927 5927 5927 5927 5927 5927 5927 5927 5928 5930 5931 5932 5932 5933 5934 5935 5936 5936 5937 5938 5939 5940 5940 5941 5942 5944 5946 5947 5949 5950 5951 5952 5953 5954 5955 5957 5959 5959
5885 5887 5887 5887 5887 5887 5888 5889 5891 5893 5894 5895 5897 5898 5900 5902 5903 5904 5905 5906 5908 5909 5910 5911 5913 5914 5915 5916 5917 5918 5919 5919 5920 5920 5921 5920 5920 5920 5920 5921 5922 5922 5922 5921 5921 5922 5922 5922 5923 5924 5925 5925 5926 5926 5927 5927 5926 5926 5927 5928 5928 5928 5928 5928 5928 5928 5928 5929 5931 5932 5933 5933 5935 5936 5937 5937 5938 5939 5940 5941 5942 5942 5943 5944 5946 5947 5949 5950 5951 5952 5953 5954 5955 5957 5959 5960 5960
5885 5886 5886 5887 5888 5887 5888 5889 5890 5892 5894 5896 5897 5898 5899 5901 5902 5904 5904 5906 5907 5909 5910 5912 5913 5914 5915 5916 5917 5918 5919 5920 5920 5920 5921 5921 5921 5921 5921 5922 5922 5923 5923 5922 5923 5923 5923 5923 5924 5924 5925 5925 5926 5927 5928 5928 5928 5928 5928 5928 5928 5929 5929 5928 5928 5928 5929 5930 5931 5933 5934 5934 5935 5937 5938 5938 5939 5940 5941 5942 5942 5943 5944 5945 5946 5947 5949 5951 5952 5954 5954 5955 5957 5959 5960 5961 5961
5885 5885 5885 5886 5888 5888 5888 5889 5890 5891 5893 5895 5897 5898 5899 5900 5902 5903 5904 5906 5907 5908 5910 5911 5913 5914 5915 5916 5917 5918 5919 5920 5920 5921 5921 5921 5921 5921 5922 5922 5923 5923 5923 5923 5924 5924 5924 5924 5925 5925 5925 5926 5926 5927 5928 5929 5930 5930 5929 5929 5929 5929 5929 5929 5929 5929 5930 5931 5932 5933 5934 5935 5936 5937 5939 5939 5940 5941 5942 5942 5942 5943 5944 5945 5946 5948 5950 5952 5954 5955 5956 5957 5958 5959 5961 5961 5962
5885 5885 5885 5886 5888 5888 5888 5888 5890 5891 5892 5895 5897 5898 5899 5900 5901 5903 5904 5905 5907 5908 5910 5911 5913 5914 5915 5916 5917 5918 5919 5919 5920 5921 5921 5922 5922 5922 5922 5923 5923 5923 5924 5924 5924 5925 5925 5926 5926 5926 5926 5926 5927 5927 5929 5930 5931 5931 5932 5932 5931 5931 5931 5931 5931 5932 5932 5933 5933 5934 5935 5936 5937 5939 5940 5941 5941 5942 5943 5943 5943 5945 5946 5947 5948 5949 5951 5953 5955 5956 5956 5958 5959 5960 5961 5962 5963
5884 5885 5885 5886 5887 5888 5888 5888 5890 5891 5893 5895 5897 5898 5899 5900 5901 5902 5904 5905 5907 5908 5909 5911 5912 5914 5915 5916 5918 5918 5919 5920 5921 5921 5922 5922 5923 5923 5923 5923 5924 5924 5924 5925 5925 5925 5926 5927 5927 5927 5927 5927 5928 5928 5929 5930 5930 5932 5933 5934 5934 5934 5934 5934 5934 5934 5934 5935 5935 5936 5936 5937 5938 5939 5941 5942 5943 5944 5945 5945 5945 5946 5948 5949 5949 5950 5952 5954 5956 5956 5957 5959 5961 5962 5963 5963 5964
5883 5884 5884 5885 5886 5888 5888 5889 5890 5891 5892 5894 5895 5896 5898 5900 5900 5901 5903 5905 5906 5908 5909 5910 5911 5913 5914 5916 5918 5919 5919 5920 5921 5922 5922 5922 5923 5924 5924 5924 5924 5925 5925 5925 5925 5926 5926 5927 5928 5928 5928 5929 5929 5929 5929 5930 5930 5931 5933 5934 5935 5936 5936 5936 5936 5935 5936 5936 5937 5938 5938 5938 5939 5939 5940 5942 5943 5944 5945 5945 5946 5947 5948 5949 5949 5950 5953 5954 5956 5957 5958 5960 5961 5963 5964 5964 5965
5882 5883 5883 5884 5885 5887 5888 5889 5889 5890 5891 5892 5893 5894 5896 5898 5899 5901 5903 5904 5905 5907 5908 5910 5911 5912 5914 5916 5917 5919 5920 5920 5921 5922 5922 5923 5924 5924 5925 5925 5925 5925 5925 5926 5926 5926 5927 5928 5929 5929 5930 5930 5930 5930 5930 5930 5931 5931 5932 5933 5934 5935 5936 5936 5936 5936 5937 5937 5938 5939 5939 5940 5941 5941 5942 5944 5944 5944 5944 5945 5947 5948 5949 5950 5951 5952 5954 5955 5957 5958 5960 5961 5962 5963 5965 5966 5966
5881 5882 5883 5884 5885 5886 5887 5888 5889 5889 5889 5890 5892 5893 5894 5896 5898 5900 5902 5903 5904 5905 5907 5909 5910 5911 5913 5915 5916 5918 5919 5921 5921 5922 5923 5923 5924 5925 5925 5926 5926 5926 5926 5927 5927 5927 5928 5928 5929 5930 5931 5931 5931 5931 5932 5932 5932 5932 5933 5934 5935 5935 5936 5937 5937 5937 5937 5938 5938 5939 5940 5942 5943 5943 5944 5945 5946 5946 5947 5947 5949 5950 5952 5953 5954 5955 5956 5957 5958 5959 5960 5961 5962 5964 5965 5966 5967
5880 5881 5883 5884 5885 5886 5886 5887 5888 5889 5888 5889 5891 5892 5893 5896 5897 5898 5899 5901 5903 5904 5906 5907 5909 5910 5912 5914 5916 5917 5919 5920 5921 5922 5923 5924 5924 5925 5926 5926 5927 5927 5927 5927 5928 5928 5929 5929 5930 5931 5932 5932 5932 5933 5933 5933 5933 5934 5934 5935 5936 5936 5937 5938 5938 5938 5938 5938 5938 5938 5939 5941 5942 5943 5943 5945 5946 5947 5948 5950 5951 5952 5953 5955 5956 5956 5957 5957 5958 5959 5960 5961 5963 5964 5965 5966 5968
5878 5880 5882 5883 5884 5885 5885 5885 5887 5888 5888 5889 5890 5891 5892 5894 5896 5897 5897 5899 5901 5903 5905 5906 5908 5909 5911 5913 5914 5916 5918 5919 5921 5922 5923 5924 5925 5925 5926 5927 5927 5928 5928 5928 5929 5929 5930 5930 5931 5932 5932 5933 5933 5934 5934 5935 5935 5935 5936 5936 5937 5938 5938 5939 5939 5939 5939 5939 5939 5939 5939 5940 5941 5942 5943 5944 5945 5947 5948 5949 5951 5952 5953 5954 5955 5955 5956 5957 5958 5959 5960 5962 5963 5964 5966 5967 5969
5878 5879 5880 5882 5883 5884 5885 5885 5885 5886 5887 5889 5890 5890 5891 5893 5894 5895 5896 5897 5899 5902 5904 5905 5907 5909 5910 5912 5913 5915 5917 5918 5920 5921 5923 5924 5925 5925 5926 5927 5928 5928 5929 5929 5929 5930 5930 5931 5932 5932 5933 5934 5934 5935 5935 5936 5936 5936 5937 5938 5938 5939 5940 5940 5941 5941 5941 5941 5941 5941 5941 5942 5942 5943 5944 5945 5946 5947 5948 5949 5950 5951 5952 5954 5954 5955 5955 5956 5958 5959 5960 5962 5963 5965 5966 5967 5970
5878 5878 5879 5880 5882 5883 5884 5884 5885 5886 5886 5888 5890 5890 5891 5892 5893 5894 5895 5896 5898 5900 5903 5904 5906 5908 5910 5911 5913 5914 5916 5918 5919 5921 5922 5923 5925 5925 5926 5927 5928 5929 5929 5929 5930 5930 5931 5932 5932 5933 5933 5934 5935 5936 5936 5937 5937 5938 5938 5939 5939 5940 5941 5942 5942 5942 5942 5943 5943 5943 5943 5944 5945 5945 5946 5947 5947 5948 5949 5950 5951 5951 5952 5953 5954 5955 5956 5957 5958 5959 5961 5962 5964 5965 5967 5968 5971
5876 5876 5878 5879 5881 5882 5883 5884 5885 5885 5886 5887 5889 5889 5890 5891 5892 5893 5894 5895 5897 5899 5901 5903 5905 5907 5910 5911 5912 5914 5916 5917 5919 5920 5921 5923 5924 5925 5926 5927 5928 5929 5930 5930 5930 5931 5931 5932 5933 5933 5934 5934 5935 5937 5937 5938 5939 5939 5939 5940 5940 5941 5942 5943 5943 5944 5944 5944 5945 5945 5945 5946 5947 5947 5948 5949 5949 5950 5950 5951 5952 5952 5953 5954 5955 5956 5957 5958 5960 5961 5962 5964 5965 5966 5968 5969 5971
5875 5875 5878 5879 5880 5881 5882 5883 5885 5885 5885 5886 5888 5888 5889 5889 5890 5891 5892 5893 5895 5897 5900 5902 5904 5907 5909 5911 5912 5914 5915 5917 5918 5919 5921 5922 5923 5925 5925 5926 5928 5929 5930 5930 5931 5931 5932 5932 5933 5934 5934 5935 5936 5937 5938 5939 5939 5940 5941 5941 5941 5942 5943 5944 5945 5945 5946 5946 5946 5947 5947 5948 5949 5949 5950 5951 5951 5952 5952 5953 5953 5954 5955 5956 5957 5958 5959 5960 5961 5962 5964 5965 5966 5967 5969 5970 5971
5873 5874 5877 5879 5879 5880 5881 5883 5884 5885 5885 5886 5887 5887 5888 5888 5889 5890 5890 5891 5893 5896 5899 5901 5904 5906 5908 5910 5912 5913 5915 5916 5917 5918 5920 5921 5923 5924 5925 5926 5927 5928 5930 5931 5931 5932 5932 5933 5934 5934 5935 5936 5937 5937 5938 5939 5940 5941 5941 5942 5943 5943 5944 5945 5946 5946 5947 5947 5948 5948 5949 5949 5950 5951 5952 5952 5953 5954 5954 5955 5955 5956 5957 5957 5958 5959 5960 5961 5963 5964 5965 5966 5967 5969 5970 5971 5972
5873 5873 5874 5877 5879 5879 5880 5882 5883 5885 5886 5886 5887 5888 5888 5888 5889 5889 5889 5889 5891 5894 5897 5900 5902 5905 5907 5908 5911 5912 5914 5915 5916 5917 5919 5920 5922 5923 5924 5925 5927 5928 5929 5930 5931 5932 5933 5934 5934 5935 5936 5936 5937 5938 5939 5939 5940 5941 5942 5943 5944 5945 5945 5946 5947 5948 5948 5948 5949 5950 5950 5951 5952 5953 5953 5954 5955 5955 5956 5956 5957 5957 5958 5959 5960 5961 5962 5963 5964 5965 5967 5968 5969 5970 5971 5972 5972
5873 5873 5871 5873 5876 5878 5880 5881 5883 5884 5885 5886 5887 5887 5887 5888 5889 5889 5889 5889 5891 5894 5896 5898 5901 5904 5905 5907 5910 5912 5914 5915 5916 5917 5918 5919 5921 5922 5924 5925 5926 5927 5928 5930 5931 5932 5933 5934 5935 5935 5936 5937 5938 5938 5939 5940 5941 5942 5943 5944 5944 5945 5946 5947 5948 5949 5949 5950 5950 5951 5951 5952 5953 5954 5954 5955 5956 5957 5957 5958 5958 5959 5960 5961 5962 5962 5963 5964 5965 5966 5968 5969 5970 5971 5971 5972 5972
5872 5873 5870 5870 5874 5877 5879 5881 5883 5884 5884 5885 5887 5887 5887 5888 5889 5889 5890 5890 5891 5893 5896 5898 5901 5903 5905 5906 5909 5911 5913 5914 5915 5916 5918 5919 5920 5922 5923 5924 5926 5927 5928 5929 5930 5932 5933 5934 5935 5936 5937 5937 5938 5938 5939 5940 5941 5942 5943 5944 5945 5946 5947 5948 5949 5950 5951 5951 5951 5952 5952 5953 5954 5955 5955 5956 5957 5958 5958 5959 5959 5960 5961 5962 5963 5964 5964 5965 5966 5967 5968 5970 5970 5971 5971 5972 5972
5869 5870 5870 5870 5873 5874 5876 5879 5882 5883 5883 5885 5886 5886 5886 5887 5888 5889 5890 5891 5892 5893 5895 5897 5899 5901 5904 5905 5908 5910 5911 5913 5914 5916 5917 5919 5920 5921 5922 5924 5925 5926 5927 5928 5930 5931 5932 5933 5934 5936 5937 5938 5938 5939 5940 5940 5941 5942 5944 5945 5946 5946 5947 5949 5950 5950 5952 5952 5953 5953 5954 5954 5955 5955 5956 5957 5957 5958 5959 5960 5960 5961 5962 5963 5964 5964 5965 5966 5967 5968 5969 5970 5970 5971 5971 5971 5972
5867 5868 5870 5871 5872 5873 5875 5879 5881 5881 5882 5884 5884 5885 5886 5888 5888 5889 5890 5891 5892 5893 5895 5896 5898 5900 5902 5904 5906 5908 5910 5911 5913 5915 5916 5918 5919 5920 5922 5923 5925 5925 5926 5928 5929 5930 5932 5933 5934 5935 5937 5938 5938 5939 5940 5941 5942 5942 5944 5945 5946 5947 5948 5949 5950 5951 5952 5953 5954 5954 5955 5955 5956 5956 5957 5958 5958 5959 5960 5960 5961 5962 5963 5963 5964 5965 5966 5967 5968 5968 5969 5970 5970 5971 5971 5971 5971
5866 5868 5869 5870 5872 5873 5875 5877 5879 5879 5880 5882 5883 5884 5886 5887 5888 5889 5889 5890 5891 5893 5894 5896 5897 5899 5901 5902 5904 5906 5908 5909 5911 5913 5915 5917 5918 5919 5921 5922 5924 5925 5926 5927 5928 5930 5931 5932 5934 5935 5936 5937 5938 5939 5940 5941 5942 5942 5943 5945 5946 5947 5948 5949 5950 5951 5952 5953 5954 5954 5955 5956 5956 5957 5957 5958 5959 5960 5960 5961 5962 5963 5963 5964 5965 5966 5966 5967 5968 5968 5969 5970 5970 5970 5970 5971 5971
5864 5866 5867 5869 5872 5873 5875 5876 5877 5878 5879 5880 5882 5883 5885 5886 5887 5888 5889 5890 5891 5892 5893 5894 5895 5897 5900 5902 5903 5904 5906 5908 5910 5912 5914 5915 5917 5918 5920 5921 5923 5925 5926 5927 5928 5929 5931 5932 5933 5934 5935 5936 5938 5939 5940 5941 5942 5942 5943 5944 5945 5947 5948 5949 5950 5951 5952 5952 5953 5954 5955 5956 5956 5957 5958 5958 5959 5960 5961 5961 5962 5963 5964 5964 5965 5966 5967 5967 5968 5969 5969 5970 5970 5970 5970 5970 5970
5861 5864 5866 5869 5872 5874 5875 5876 5876 5877 5878 5879 5881 5882 5883 5884 5885 5887 5888 5889 5891 5892 5893 5893 5894 5896 5899 5902 5902 5904 5905 5907 5909 5911 5913 5914 5915 5917 5919 5920 5922 5924 5926 5926 5927 5928 5930 5931 5933 5933 5934 5936 5937 5938 5939 5940 5941 5942 5943 5944 5945 5946 5947 5949 5949 5950 5951 5952 5953 5953 5954 5955 5956 5957 5958 5958 5959 5960 5961 5961 5962 5963 5964 5964 5965 5966 5967 5967 5968 5968 5969 5969 5969 5969 5969 5969 5969
5860 5863 5866 5868 5871 5873 5873 5874 5875 5875 5877 5878 5880 5882 5882 5883 5884 5885 5886 5889 5891 5892 5893 5893 5894 5896 5899 5901 5902 5904 5905 5907 5908 5910 5911 5913 5914 5916 5917 5918 5920 5923 5925 5926 5926 5928 5929 5931 5932 5933 5934 5935 5936 5937 5938 5939 5940 5942 5943 5944 5945 5946 5947 5948 5949 5950 5951 5952 5952 5953 5953 5954 5955 5956 5957 5958 5958 5959 5960 5961 5962 5963 5964 5964 5965 5966 5967 5967 5968 5968 5968 5968 5968 5969 5969 5968 5968
5859 5861 5863 5865 5868 5870 5872 5873 5874 5874 5876 5877 5878 5880 5881 5882 5883 5884 5885 5887 5889 5891 5893 5894 5895 5896 5898 5900 5902 5903 5905 5907 5908 5909 5911 5912 5913 5915 5916 5917 5919 5921 5924 5925 5926 5927 5928 5929 5931 5932 5933 5935 5936 5937 5938 5938 5939 5940 5942 5943 5944 5945 5946 5947 5948 5949 5950 5951 5951 5952 5952 5953 5954 5955 5956 5957 5958 5958 5959 5960 5961 5962 5963 5964 5965 5965 5966 5967 5967 5967 5968 5968 5968 5968 5968 5967 5967
5858 5860 5861 5863 5866 5868 5870 5872 5874 5875 5875 5876 5877 5878 5880 5882 5883 5883 5884 5886 5888 5890 5891 5893 5894 5896 5898 5899 5901 5902 5904 5906 5907 5908 5910 5911 5912 5914 5915 5916 5917 5919 5922 5923 5925 5926 5927 5928 5930 5931 5933 5934 5935 5936 5937 5938 5938 5939 5940 5941 5942 5943 5944 5946 5947 5948 5949 5950 5951 5951 5952 5953 5954 5954 5955 5956 5957 5958 5958 5959 5961 5961 5962 5963 5964 5964 5965 5965 5966 5966 5967 5967 5967 5967 5967 5967 5967
5856 5858 5860 5862 5865 5867 5870 5871 5872 5874 5875 5875 5874 5876 5879 5881 5882 5882 5883 5884 5886 5887 5889 5891 5893 5894 5896 5898 5900 5901 5903 5904 5906 5907 5909 5911 5912 5913 5914 5915 5916 5918 5920 5922 5924 5925 5927 5928 5929 5930 5932 5933 5934 5935 5936 5937 5938 5938 5939 5940 5941 5942 5943 5944 5945 5946 5948 5949 5950 5951 5951 5952 5953 5954 5955 5955 5956 5957 5957 5958 5959 5960 5961 5962 5962 5963 5963 5964 5965 5965 5965 5966 5966 5966 5966 5966 5966
5855 5857 5859 5863 5865 5866 5869 5870 5871 5873 5874 5874 5874 5874 5877 5879 5881 5882 5883 5883 5884 5886 5887 5889 5890 5892 5894 5895 5898 5900 5901 5903 5905 5906 5908 5910 5911 5912 5913 5914 5915 5917 5919 5921 5922 5924 5926 5927 5928 5929 5930 5932 5933 5934 5935 5936 5937 5938 5938 5939 5940 5941 5942 5943 5944 5945 5946 5947 5948 5950 5951 5951 5952 5953 5954 5955 5956 5956 5957 5957 5958 5959 5960 5960 5961 5962 5962 5963 5963 5964 5964 5965 5965 5965 5965 5965 5965